This is the latest recevied weather packets stored in our database for station/object PY2UEP-1. If no packets are shown the sender has not sent any weather packets the latest 10 day(s).
| Time | Temp. | Humidity | Pressure | Rain* | Wind** | Luminosity | Snow |
|---|---|---|---|---|---|---|---|
| 1777716941 | 19.44° C | 84% | 1020.8 hPa | 0 mm | - | - | - |
| 1777716641 | 18.89° C | 84% | 1020.5 hPa | 0 mm | - | - | - |
| 1777716341 | 18.89° C | 86% | 1020.5 hPa | 0 mm | - | - | - |
| 1777716041 | 18.33° C | 86% | 1020.4 hPa | 0 mm | - | - | - |
| 1777715741 | 18.33° C | 86% | 1020.3 hPa | 0 mm | - | - | - |
| 1777715441 | 18.33° C | 86% | 1020.1 hPa | 0 mm | - | - | - |
| 1777715141 | 18.33° C | 87% | 1020.1 hPa | 0 mm | - | - | - |
| 1777714841 | 18.33° C | 86% | 1020.1 hPa | 0 mm | - | - | - |
| 1777714541 | 18.33° C | 88% | 1019.9 hPa | 0 mm | - | - | - |
| 1777714241 | 18.33° C | 88% | 1019.9 hPa | 0 mm | - | - | - |
| 1777713941 | 18.33° C | 88% | 1019.8 hPa | 0 mm | - | - | - |
| 1777713641 | 18.33° C | 88% | 1019.7 hPa | 0 mm | - | - | - |
| 1777713341 | 18.33° C | 87% | 1019.6 hPa | 0 mm | - | - | - |
| 1777713041 | 18.33° C | 87% | 1019.4 hPa | 0 mm | - | - | - |
| 1777712741 | 18.33° C | 87% | 1019.4 hPa | 0 mm | - | - | - |
| 1777712441 | 18.33° C | 86% | 1019.4 hPa | 0 mm | - | - | - |
| 1777712141 | 18.33° C | 86% | 1019.2 hPa | 0 mm | - | - | - |
| 1777711841 | 18.89° C | 85% | 1019 hPa | 0 mm | - | - | - |
| 1777711541 | 18.89° C | 84% | 1018.9 hPa | 0 mm | - | - | - |
| 1777711241 | 18.89° C | 84% | 1018.8 hPa | 0 mm | - | - | - |
| 1777710941 | 19.44° C | 82% | 1018.6 hPa | 0 mm | - | - | - |
| 1777710641 | 19.44° C | 79% | 1018.6 hPa | 0 mm | - | - | - |
| 1777710341 | 19.44° C | 79% | 1018.4 hPa | 0 mm | - | - | - |
| 1777710041 | 20° C | 78% | 1018.4 hPa | 0 mm | - | - | - |
| 1777709741 | 19.44° C | 79% | 1018.4 hPa | 0 mm | - | - | - |
* Rain since midnight (hover to see other rain measurements)
** Current wind speed in m/s (hover to see current wind gust speed)